Résultats de la compétition "1/2 finale SE" du 20-04-2008 organisée par la ligue AZ
     
  Télécharger le fichier CSV.  
     
     

 Circuit "A"

Licence Nom Prénom Temps CN
précédent
Score sur
la course
Différence
1896ERDINGERFabrice1:30:1472307654+424
1284PEYVELBenoit1:41:0379196835-1084
5796MENGINBastien1:43:0071246706-418
6613SCHIAVOEmilien1:44:4871036590-513
12934THOMASJohann1:52:2459506145+195
3563DUSIGNEPatrick1:58:0558015849+48
160GOUYRudy2:06:2463065464-842
3463DECHAVANNEFranck2:13:2062875180-1107
9354LOCATELLIYann2:16:5658185044-774
12346GAFFURIJulien2:19:2753214953-368
15925MERLEJulien2:21:0055794898-681
6433SANTGuilhem2:22:4559274838-1089
806BOURRINJ-BaptisteN/A78140-7814

  Indice de confiance du circuit (moyenne des différences entre CN et score sur la course des 3 à 10 premiers) : 518




 Circuit "Abis"

Licence Nom Prénom Temps CN
précédent
Score sur
la course
Différence
11420RINGOTMathieu1:13:3970836161-922
8972LEPLATEmmanuel1:17:0648265885+1059
3778RUIZLudovic1:18:5660805749-331
18742PETITGOUNELLEMathieu1:19:2049785720+742
6014THURIOTKevin1:23:2647935439+646
16940CHATELAINNicolas1:24:0052245402+178
14380PICARDVincent1:26:0157675275-492
16002BALPFabrice1:30:1644075027+620
15855MUSCARNERALaurent1:30:2448325020+188
1265COLLETERThomas1:36:1451914715-476
11574NOYERAnthony1:40:2440644520+456
6566GIBIATXavier1:46:1852524269-983
9341FENEUILJoseph1:51:4761484059-2089
16361MARMOTTANTPhilippe1:52:1637204042+322
2357MANGUEROOlivier1:55:1034583940+482
3675CHALOPINMathieu1:55:4143073923-384
8349FOURNIERRemi1:55:5336573916+259
20095SCIORAPierre1:59:25N/A3800N/A
18419MOUTELMathieu2:05:2930813616+535
15590GOULESQUENicolas2:10:2633483479+131
12057POUPARDStephane2:16:1748793330-1549
13021BOURNEYvan2:17:0734703309-161
4080BONODEAUGuillaumeN/A47280-4728

  Indice de confiance du circuit (moyenne des différences entre CN et score sur la course des 3 à 10 premiers) : 352




 Circuit "B"

Licence Nom Prénom Temps CN
précédent
Score sur
la course
Différence
183LINOSSIERPierre1:05:0158296304+475
14009FATOUXRemy1:12:0757025683-19
205PERRINEric1:13:3173685575-1793
5139BECUCindy1:13:5859555541-414
4033ESTELAOlivier1:14:4257705487-283
13348SVANTESSONJulia1:22:3250074966-41
16056MARIOlivier1:24:4439084837+929
7983GUNTHERM-Christine1:28:2249864638-348
17180GAILLARDDavid1:28:2351594637-522
8388LHOMBARTElsa1:28:5145064613+107
241DUCRETPhilippe1:29:5240504561+511
6352GAYDONRegis1:31:1447484492-256
17673MASSOTBertrand1:32:3451404428-712
13062STEINNicolas1:39:3641614115-46
16117TARDYLaetitia1:39:5547524102-650
6806CHOMELRemi1:44:1137383934+196
17901BUESSINGERJacky1:44:4346353914-721
3217AUGAGNEURGerald1:57:0246413502-1139
19713SIEWIERSKIWlady1:58:17N/A3465N/A
17668VAN PEVENACGECyril2:03:4031283314+186
12541PEUDEPIECEOlivier2:22:17N/A2881N/A
11949DESBRESTPierre2:48:3130802432-648
12417RYCKEBOERDimitriN/A29950-2995
3292DODINCelineN/A68150-6815
17549ROUVIEREHugoN/A26250-2625
13707CAVARROCJeromeN/A45310-4531

  Indice de confiance du circuit (moyenne des différences entre CN et score sur la course des 3 à 10 premiers) : 319




 Circuit "Bbis"

Licence Nom Prénom Temps CN
précédent
Score sur
la course
Différence
8422VUITTONChristophe1:05:3759065727-179
5676BALLIOTYvan1:08:5760585450-608
1593DELENNEPierre1:09:1658475425-422
9179ALESSANDRIPierre1:10:3348415327+486
7982MANGIONEFrançois1:12:0154535218-235
2936SANDEVOIRBenoit1:15:5258554953-902
8837HULSERaymond1:17:4455024834-668
3203DESBRESTPatrick1:18:5042384767+529
3818BASSETOlivier1:21:0457204636-1084
7877VANDEWEEGHEVincent1:21:1342654627+362
11419RINGOTFrederic1:24:2043274456+129
5603MANETP-Jean1:24:3242954446+151
10517ROGERJ-Pierre1:26:3241244343+219
12503PETETINJ-Louis1:27:1832724305+1033
3546GIBIATFrederic1:28:3744234241-182
9460MONTEMONTPatrice1:30:1145274167-360
11174AZOCARArnaud1:31:1736144117+503
3956LILLAZPascal1:35:4744243923-501
16632KASTENSSONJens1:38:5042183802-416
1320ROCHPierre1:42:0537703681-89
803BARRIERXavier1:45:0938673574-293
761POMETEric1:47:0645103509-1001
10798SIONNEAUMarc1:48:5036553453-202
16492CARRIEREOlivier1:52:0337453354-391
465LOPEZAlain1:56:3138773225-652
12230FERRATOEric1:56:5036073217-390
16933SINICOPatrick2:07:3128582947+89
17711MOTHEPierre2:08:3032812924-357
10367SIAUDPhilippe2:18:2632362715-521
8733COULIERFrancois2:30:2428702499-371
799POCCHIOLABernard2:53:03N/A2172N/A
1752GRANSARTRenaudN/A36920-3692
2321DENAIXMichelN/A56850-5685

  Indice de confiance du circuit (moyenne des différences entre CN et score sur la course des 3 à 10 premiers) : 197




 Circuit "C"

Licence Nom Prénom Temps CN
précédent
Score sur
la course
Différence
136BORNARDPatrice1:06:2357156082+367
8203ASTRADELaurent1:07:2756225986+364
9664RICHARDMael1:09:3851915798+607
9351CALANDRYChristophe1:10:4760635704-359
11687GROTEAndreas1:15:5952265314+88
11742MAGLIONEEric1:17:1653835225-158
10977BOISNELAlain1:18:3750665136+70
11047ANFOSSIDenis1:20:1855955028-567
814DEVRIEUXRobin1:20:2653325020-312
11829DANIELEric1:23:3452704831-439
11833WATHELETEric1:25:0547534745-8
12766LOGERobert1:27:2851074616-491
1348SINIBALDIMichel1:28:3651174557-560
12231ELIASPierre1:29:1661284523-1605
13251LE LUDUECYann1:29:4442274499+272
244BONORALaurent1:31:1040474429+382
14766STUCKELBERGERNicola1:31:3346764410-266
2585LANGEARDVincent1:33:2046994326-373
3723LUTHRINGERFrancois1:34:0355434293-1250
4983AUBEThierry1:35:2932874229+942
3545PELUSOBertrand1:35:3048824228-654
14918ICARDPaul1:37:1844654150-315
1592DELENNEMatthieu1:38:3938594093+234
14308RAUBENHEIMERBernard1:38:4743874087-300
8592SARRATChristophe1:39:2339424063+121
16714MONCLARDJerome1:40:3142484017-231
15669CHANDEYSSONLuc1:41:3742083973-235
7249RICCIJ-Marie1:45:1136963839+143
5801BREMAUDFabrice1:51:10N/A3632N/A
13294TOULIERFrancois1:51:1841813628-553
1139LONGEREDaniel1:52:4337723582-190
11099MARTINBertrand1:53:5524853544+1059
19712SANCHEZ SEGURAManuel1:56:17N/A3472N/A
19728MAZARSSamuel1:57:36N/A3433N/A
8252DAVID-BOUDOUNISelim1:57:4539043429-475
9724FENEUILFlorent2:02:0447333308-1425
18410LAVILLEXavier2:08:2232623145-117
11243PARPALEric2:09:4134523113-339
7303LELOUPHerve-Philipp2:50:2638632369-1494
10089ROCHERobertN/A52610-5261
17882ZAHNJ-MarieN/A21640-2164
18706ROBICHONChristopheN/AN/A0N/A
11242GOURNAYStephaneN/AN/A0N/A
7162GAILLARDChristopheN/A46680-4668

  Indice de confiance du circuit (moyenne des différences entre CN et score sur la course des 3 à 10 premiers) : 131




 Circuit "D"

Licence Nom Prénom Temps CN
précédent
Score sur
la course
Différence
12621GROSJEANChristine0:49:5446875110+423
2731PERRINOdile0:52:5351844822-362
7554TANNONathalie0:56:2948154514-301
2355MANGUEROLaure0:58:5243384332-6
5463DENAIXOriane0:59:4542414267+26
11323DAGATTICaroline1:02:35N/A4074N/A
4158RICHAUDA-Sophie1:04:2139633962-1
801BARRIERMarianne1:04:5550583928-1130
6064GREBELLaurence-Marie1:06:3243613832-529
13799KROLHelene1:06:4935453816+271
17933LEGENDREM-Noelle1:09:3436953665-30
14718DE MINIACGwenola1:11:4632113553+342
19919THOLLONMarie1:16:44N/A3323N/A
18655BERNARDLaura1:20:5041173154-963
14439BARREDALaure1:22:1539373100-837
10684ROCHESandrine1:28:5234732869-604
16589BERRIENIsabelle1:29:3124602848+388
2408PIERRONA-Christine1:32:5223142746+432
12936AUGAGNEUROlga1:33:1926112732+121
15655PENNETCeline1:38:2929972589-408
14576GAFFURIA-Laure1:40:3829362534-402
1746GEHINChristine1:41:0440712523-1548
12880DUCHASSINAudrey1:44:3433412438-903
16146BITTERLINLaurence1:45:3524662415-51
16934SINICOSeverine1:51:2129032290-613
4276SCHIAVOElodie1:54:1425412232-309
19410NOYEREmily1:55:27N/A2209N/A
20024GRAUCathy1:59:34N/A2133N/A
16150RYCKEBOERAnne1:59:51N/A2128N/A
13061STEINVirginie2:02:3734572079-1378
15426SADOUXDelphine2:08:2622281985-243
10394INDEAUXCatherine2:14:5926181889-729
9723FENEUILBlandineN/A50330-5033
14269SERRETDelphineN/A33700-3370
20143MACAIREFlorianeN/AN/A0N/A

  Indice de confiance du circuit (moyenne des différences entre CN et score sur la course des 3 à 10 premiers) : 240




 Circuit "E"

Licence Nom Prénom Temps CN
précédent
Score sur
la course
Différence
8514VASSYMargaux0:43:4557385469-269
1848DERMINEJean0:45:0356845311-373
9869CORDEIRO MENDESMagalie0:45:3751935245+52
2575ESCUDIEChristian0:45:4352665234-32
5431BOURGESRene-Yves0:45:57N/A5207N/A
3461DECHAVANNEJ-Francoi0:46:3756225132-490
3323SCHMITTDenys0:47:5542794993+714
2920ANTOINEChristine0:48:1553104959-351
10215VERDIERChristine0:49:1144864865+379
12288FOULET-MOREAULauria0:52:5348984524-374
9933BASSETSylvie0:53:5940434432+389
1635MAGDINIERGilles0:54:2543784397+19
1124BENEVELLOOlivier0:55:3847064301-405
1447ESCURETAndrea0:56:0346554269-386
8791GEORGEMyriam0:56:0437414267+526
3057DELATOURChristiane0:56:1249124257-655
11495DELENNEA-Francoise0:56:3337054231+526
7147RAGACHEJ-Claude0:58:5743934059-334
6610CHANTELOUAnnie1:02:0236633857+194
1847DERMINEIsabelle1:02:4245653816-749
1612MARCONSylvie1:05:2839803655-325
5464DENAIXMaylis1:06:2740603601-459
243BONORABeatrice1:07:0436663567-99
9230THIEVENAZRoland1:07:2739433547-396
8648VALCHERAClaire1:08:0635753513-62
11716SECKLERDaniel1:08:2637693496-273
1591DELENNEBlandine1:10:1838803403-477
10502PELLETIERGenevieve1:10:2440943399-695
4596JOURDANJ-Marc1:11:1828043356+552
17094JUSSIAN-SOGNOSylvie1:11:4428033335+532
813COMBETAnnie1:13:3640893251-838
430POUGETFrancois1:15:3531233165+42
809BOURRINMichel1:16:1229703140+170
800BARRIERCarole1:16:2439483132-816
6278PEREYRONOdile1:16:2926553128+473
1487MARCHESINSylvie1:17:5742603069-1191
3662DOUSTE-BACQUEIsabel1:18:2926293049+420
12171RICADAEmilie1:19:5224772996+519
3415PIERRONClaude1:20:2441582976-1182
12124CHABALClaire1:20:3145382972-1566
18478LAFARGEOdile1:25:4625572790+233
14786LOPEZSvetlana1:27:3024552734+279
13797LEPRETREIsabelle1:28:0424502717+267
13133RIBAUTJ-Paul1:31:0023292629+300
15390BARTHELEMYMarianne1:31:1726162621+5
10187RICCIEmilie1:31:1922552620+365
14767CERTANOChloe1:34:0230842544-540
10979LEMAIRENathalie1:35:4029742501-473
12356RINGOTVeronique1:35:4332902500-790
7831MASSONAude1:37:1030322462-570
10862HOULLIERIsabelle1:38:0431012440-661
19543VASQUEZClaude1:38:19N/A2434N/A
12026DEPHILIPPOJ-Luc1:42:1024612342-119
16715MONCLARDValerie1:45:4222732264-9
17790PICAZOJ-Jacques1:50:1933072169-1138
11100MARTINAnnie1:53:1722372112-125
7435DOMANGEA-Lise1:55:4130632068-995
13662RUDLINGSuzie1:55:4827222066-656
12169RICADADenis2:01:0522721976-296
12460FARRUGIAJ-Marc2:16:4624321749-683
19335ELIASLaurence2:19:38N/A1713N/A
5804BREMAUDVeronique2:27:36N/A1621N/A
4274LAURENTAimeN/A13820-1382
9435SEPUKAM-ChristianeN/AN/A0N/A
8894CRUBILELaurenceN/A31190-3119
13937ERTELKellyN/A49240-4924
17789PICAZOSophieN/A35850-3585
16001ROUXAgnesN/A27030-2703
3874VISCAPaulN/A32130-3213
13552VOULANVivianeN/A13180-1318
19376PAPURELLOCorinneN/AN/A0N/A
12464FARRUGIAAmandineN/A22090-2209
18030ALLERMarieN/AN/A0N/A
9722FENEUILValerieN/A19380-1938
18073SARRATSophieN/A19970-1997
10918POCIELLOChristianN/A32170-3217
18411LAVILLEMireilleN/A16720-1672
12767LOGESophieN/A34480-3448

  Indice de confiance du circuit (moyenne des différences entre CN et score sur la course des 3 à 10 premiers) : 55




 Circuit "F"

Licence Nom Prénom Temps CN
précédent
Score sur
la course
Différence
1739CAMPOSJ-Pierre0:39:0544045182+778
415COURNETLaurence0:39:39N/A5108N/A
1270ANTOINEAlain0:41:3445654873+308
1993PERICHONBernard0:42:2356744779-895
146COUPATGerard0:45:2246124464-148
5938EGGLIRoland0:45:2453784461-917
10321ROUPIOZJocelyne0:47:3134984262+764
18680BIASSEGuy0:47:5441394228+89
1347SINIBALDIMarc0:51:1545563952-604
4537SLIMANJacques0:51:2436353940+305
29TOURNAIREPierre0:51:47N/A3911N/A
16352BAUDOINJ-Paul0:52:5331083830+722
807BOURRINM-Francoise0:53:2531133792+679
841GATYDaniele0:53:3037933786-7
4272CLERCAnne0:56:0636563610-46
476MATHIEUMaurice0:56:2241853593-592
1093ARNAUDSerge0:56:2439963591-405
1756LORREAnnie0:56:4833483566+218
6442GEOFFROYGerard0:57:4338803509-371
4613GUITARTGilles0:57:5929753493+518
8868BRAMASRenee0:58:4834973445-52
7801MACHEREYLaurence1:01:4934853276-209
516PINPatrick1:05:0932133109-104
2354MANGUERODenise1:06:4536663034-632
12056SCHMITT-POUPARDFlorence1:08:4833772944-433
8626FERRANDM-Christine1:09:5431582898-260
12359BAYLEOdile1:10:5124912859+368
13752VILLEDIEUMartine1:11:2231012838-263
7042ANDREPatrick1:11:2731262835-291
6445PERAChristiane1:13:4029832749-234
2329MOISSETNicole1:16:3930262642-384
15423GIRODMarylene1:16:3925482642+94
5661BOURGESBernadette1:17:37N/A2609N/A
3547GIBIATDanielle1:17:5331752601-574
3556SZNAIDERPatrick1:18:2732032582-621
8427BORNARDFabienne1:20:2023022521+219
11322GRAUERIsabelle1:21:0929962496-500
10787KOBRYNMarc1:21:4725752477-98
455GUIGUETMichel1:21:5041692475-1694
3665KPOKOUChristiane1:22:4528172448-369
2181PROSTDaniel1:22:4822662446+180
4597CERETMartine1:26:0231902354-836
14253PALUDJoel1:26:0627572352-405
19461RAMSEYERRobert1:28:56N/A2277N/A
10264LENFANTChantal1:34:5421122134+22
10788KOBRYNM-Claire1:34:5821162133+17
2188SIMONMichel1:35:0434142130-1284
506MARASCOThomas1:35:4328712116-755
1628ROUXAnnie1:38:4217732052+279
17525CARRIEREJosianne1:50:0219351841-94
12170RICADAChristine1:51:1816241820+196
10186RICCINathalie1:52:1618821804-78
454GUIGUETAntoinette1:52:5426631794-869
16129THIEBAUTEvelyne2:04:1825861629-957
8944BOUILLETGenevieve2:04:5924011621-780
19342DERBOMEZChristine2:06:0120271607-420
4252PELUSOBernadetteN/A11670-1167
10254KPOKOULordN/AN/A0N/A

  Indice de confiance du circuit (moyenne des différences entre CN et score sur la course des 3 à 10 premiers) : 125




 Circuit "G"

Licence Nom Prénom Temps CN
précédent
Score sur
la course
Différence
5167BORRELLIBernadette0:30:2636574570+913
2401DEVILLENelly0:33:5041494111-38
1737BONRene0:37:3837173696-21
512BOCHETRoland0:51:3326722698+26
6443GEOFFROYNicole0:53:0622692619+350
145COUPATCatherine0:57:3126902418-272
1416CHAVERNACBruno1:01:5022902249-41
18688BUISSONGeneviève1:11:1119991954-45
16634BAUDOINAnnie1:15:2820691843-226
11497ULMERClaudine1:16:0322831829-454
1750GEHINMonique1:18:2915901772+182
17LEVEQUEPaulette1:33:57N/A1480N/A
1417CHAVERNACChantal1:36:2614571442-15
2182PROSTGisele1:38:3023021412-890
18LEVEQUEPierre1:54:09N/A1218N/A

  Indice de confiance du circuit (moyenne des différences entre CN et score sur la course des 3 à 10 premiers) : 281




 Circuit "H"

Licence Nom Prénom Temps CN
précédent
Score sur
la course
Différence
17392MONTIGAUDThibault0:56:1547374223-514
16081DELANNOYP-Alexandre1:01:0834403885+445
12073JOVERKevin1:01:2234913870+379
17102AILHAUDThomas1:04:2044243692-732
12357RINGOTAlexis1:07:2043463527-819
13628SIMONQuentin1:10:0036583393-265
11951DESBRESTPaul1:12:2845413278-1263
12123COPINArthur1:20:4939792939-1040
9967PEREYRONMartin1:37:2334212439-982
10784COULIERAdrien2:00:0021391979-160
15767ROUSSEAUMickael2:01:1434531959-1494
17505MAGLIONEJonathanN/A36920-3692
2014MAILHESYoannN/AN/A0N/A

  Indice de confiance du circuit (moyenne des différences entre CN et score sur la course des 3 à 10 premiers) : 523




 Circuit "I"

Licence Nom Prénom Temps CN
précédent
Score sur
la course
Différence
9932BASSETIsia0:37:2053083943-1365
11061SANDEVOIRLuc0:37:2941453927-218
15787ROCHEFanny0:38:2147853838-947
5802BREMAUDTitouan0:38:31N/A3822N/A
18660RIONicolas0:40:1641663656-510
16550PAGEQuentin0:43:1440323405-627
11952DESBRESTJ-Baptiste0:43:3732753375+100
6391BARRIERSimon0:44:0538283339-489
10368SIAUDMarius0:44:2540593314-745
12768LOGELucie0:45:4638083216-592
13627BALASKOVICTom0:46:1332113185-26
16070RICHINMarion0:47:3334373096-341
9976POINSIGNONElise0:49:1143222993-1329
12769LOGEPaul0:49:1641282988-1140
15093VILLEDIEURemi0:50:2339712922-1049
10383DELENNESybille0:51:2032152868-347
14764DUBESSYLucas0:52:2638782807-1071
17791PICAZOSilvain0:54:4334962690-806
14856MONCLARDGuillaume1:01:1636602403-1257
12072VALOISLaetitia1:07:4611442172+1028
17792PICAZOCamille1:08:3524312146-285
14830MOTHEJonathan1:09:3223182117-201
19698MAGNANMartin1:09:47N/A2109N/A
5338ROCHCaroline1:12:2929162031-885
15098IVANOVAOscar1:15:3926201946-674
18072SARRATCamille1:45:35N/A1394N/A
16502MARTINEZKevinN/A20410-2041
17813ALIANEIdrissN/A17950-1795
16496DETINGUYMatthieuN/A19550-1955

  Indice de confiance du circuit (moyenne des différences entre CN et score sur la course des 3 à 10 premiers) : 227




 Circuit "Ibis"

Licence Nom Prénom Temps CN
précédent
Score sur
la course
Différence
11328GRAUERHeloise0:33:0132563647+391
8108LELOUPAnouk0:33:2651603602-1558
6706LETOUBLONAndrea0:33:5045733559-1014
16357MAISONNEUVEValentine0:37:3526623204+542
14738BIHELJulia0:37:3730363201+165
7672DEVRIEUXNais0:41:0035042937-567
7711DENAIXLou0:43:0034212800-621
17531CHANDEYSSONLaurie0:43:2534092774-635
18432HUMMEL-AZAISMargaux0:48:2129732491-482
9506PELUSOSeverine1:07:5721701772-398
12810THOUMELINClaire1:38:1216571226-431
10863DEJARDINEmilieN/A24910-2491

  Indice de confiance du circuit (moyenne des différences entre CN et score sur la course des 3 à 10 premiers) : 439




 Circuit "K"

Licence Nom Prénom Temps CN
précédent
Score sur
la course
Différence
10384DELENNEAdrien0:25:4748653883-982
11904DELENNEWilliam0:27:3642893627-662
14950SOGNOMartin0:31:4934303146-284
11355BASSETMarian0:31:5246973141-1556
12358RINGOTPaul0:36:4231382728-410
8975PERRINArnaud0:36:4931892719-470
17418LAFARGEEmeline0:37:5026312646+15
10369SIAUDUlysse0:37:5832112637-574
18100BEYLSNicolas0:38:2522932606+313
14770TOULIER--ANCIANLucas0:42:4126312345-286
19677JACOBSLouis0:42:4411692343+1174
16547LAVILLEJulien0:45:5124172183-234
10411LELOUPNathalie0:52:4714131897+484
9402BORNARDJulie0:52:4919321895-37
19486BISSIERECamille0:53:33N/A1869N/A
16137ELIASPauline0:53:3830881867-1221
10412LELOUPGaelle0:56:4613541763+409
1770GAILLARDEmmanuelle0:58:51N/A1701N/A
13800DELENNECamillia1:00:0125911668-923
11221FENEUILThibauld1:02:0028891615-1274
17530CHANDEYSSONLéa1:03:0622531586-667
17708XIMENEZVincent1:05:1917761533-243
15417ROCHEJonathan1:13:4926571356-1301
9996ROCHSophie1:16:2416081310-298
18074SARRATBastien1:32:3816081081-527
19109BRUNYNicolas2:00:00520834+314
19108LESTRADEJonathan2:14:18499745+246
16555PICAZOMarieN/A26630-2663
18841VUITTONGaetanN/A23980-2398

  Indice de confiance du circuit (moyenne des différences entre CN et score sur la course des 3 à 10 premiers) : 147




 Circuit "L"

Licence Nom Prénom Temps CN
précédent
Score sur
la course
Différence
8976PERRINMathieu0:23:5221812774+593
1122BAYLEVanessa0:28:13N/A2346N/A
9403BORNARDNicolas0:28:4319272305+378
16020LETOUBLONThomas0:32:1222712056-215
16331CAVARROCHugo0:33:1421661992-174
17881SANCHEZXan0:35:5018791847-32
15418ROCHEMaxime0:35:5119321847-85
19311DI BRANGOFabien0:41:4112321588+356
18842VUITTONMarie0:42:3619401554-386
17030DELENNEJoanna0:43:4017281516-212
14367VALOISAdeline0:46:3215281423-105
12398BASSETJuliette0:51:0820261295-731
18165TOULIER--ANCIANTom0:52:0619901271-719
12587GREBELLouise1:07:251436982-454
17095SOGNOVincent1:08:191245969-276
19546PAPURELLOSylvain1:42:47N/A644N/A
14523BUIATTIVincentN/A21670-2167
20060PAPURELLOAnthonyN/AN/A0N/A

  Indice de confiance du circuit (moyenne des différences entre CN et score sur la course des 3 à 10 premiers) : 309




 Circuit "Jalonné"

Licence Nom Prénom Temps CN
précédent
Score sur
la course
Différence
16147CERTANOLuke0:26:5613372651+1314
18412LAVILLEAdrien0:29:1312982444+1146
17763ELIASGuilhem0:34:1820152081+66
18172SANDEVOIRAude0:35:2616552015+360
12770LOGEJeanne0:39:0121311830-301
16984LANGEARDElliot0:40:4416441753+109
16043MONTEMONTLucas0:45:1017931581-212
18843VUITTONJulien0:50:0017541428-326
19656CAVARROCAmandine0:54:31N/A1310N/A
18119PERRINSimon0:55:3710931284+191
15427GREBELAurele0:59:247221202+480
20052KOBRYNMathieu1:01:17N/A1165N/A
18249DELENNETommy1:06:3513881072-316
16836MONTEMONTClement1:20:471564884-680
19657CAVARROCLisa1:21:51N/A872N/A
16985LANGEARDVictoriaN/A14880-1488

  Indice de confiance du circuit (moyenne des différences entre CN et score sur la course des 3 à 10 premiers) : 365




 Circuit "E2"

Licence Nom Prénom Temps CN
précédent
Score sur
la course
Différence
7524MACHEREYGilles0:58:5350574702-355
12055POUPARDAlain1:01:0642404532+292
695TENEDOSRobert1:04:5247904268-522
3740BUIATTIPascal1:06:03N/A4192N/A
1291STEFANINIJ-Philippe1:06:3744894156-333
13796LEPRETREMaximilien1:07:1739734115+142
5168JACQUESSONGilles1:08:0650744066-1008
11485VERGEPhilippe1:09:4649843969-1015
11321GRAUERJ-Luc1:10:1646973940-757
1631ROUXMichel1:12:0239953844-151
1865RIOMichael1:15:25N/A3671N/A
480RIDEAUPhilippe1:15:4933723652+280
288LEGALLRoger1:21:2032323404+172
6376ROUSSETDenis1:24:04N/A3294N/A
10503MAZARDJ-Pierre1:26:2543533204-1149
8625FERRANDLuc1:27:5040113152-859
1104SCHIAVOIrenee1:29:2930593094+35
9855VIDALLucien1:33:0827282973+245
851VALLATGerard1:47:2631152577-538
15092VILLEDIEUJ-Luc1:54:3231132417-696
1242KOWALJean1:59:51N/A2310N/A
1819SANTAMARIAPatrickN/A41300-4130

  Indice de confiance du circuit (moyenne des différences entre CN et score sur la course des 3 à 10 premiers) : 399






 Retour